Hourly Data Report for September 27, 2017

All times are specified in Local Standard Time (LST). Add 1 hour to adjust for Daylight Saving Time where and when it is observed.

SATURNA ISLAND CS
BRITISH COLUMBIA

48°47'02.067" N
123°02'41.082" W
24.40 m
1017101
71473
WEZ

Download Data

Hourly Data (September 2017)
Hourly Data Report for September 27, 2017
Temp Definition
°C
Dew Point Temp Definition
°C
Rel Hum Definition
%
Wind Dir Definition
10's deg

Wind Spd Definition
km/h
Visibility Definition
km
Stn Press Definition
kPa
Hmdx Definition


Wind Chill Definition


Weather Definition


TIME
00:00 14.8 12.7 88 32 3   101.80     LegendNANA
01:00 14.8 12.8 88 28 4   101.81     LegendNANA
02:00 14.6 12.8 89 27 3   101.79     LegendNANA
03:00 14.3 12.8 91 28 4   101.77     LegendNANA
04:00 14.2 12.8 92 28 5   101.75     LegendNANA
05:00 13.9 12.7 92 31 2   101.75     LegendNANA
06:00 13.9 12.8 93 27 2   101.75     LegendNANA
07:00 14.5 13.4 93 27 4   101.72     LegendNANA
08:00 14.5 13.4 93 27 5   101.74     LegendNANA
09:00 15.6 14.3 92 25 3   101.76     LegendNANA
10:00 15.7 13.4 86 13 3   101.78     LegendNANA
11:00 17.6 14.3 81 27 3   101.75     LegendNANA
12:00 16.6 13.1 80 31 7   101.68     LegendNANA
13:00 17.3 13.1 77 31 7   101.60     LegendNANA
14:00 17.8 12.9 73 27 3   101.54     LegendNANA
15:00 18.3 13.1 72 32 1   101.48     LegendNANA
16:00 16.4 12.7 79 30 9   101.39     LegendNANA
17:00 15.9 13.1 83 30 12   101.33     LegendNANA
18:00 15.5 12.9 85 30 10   101.30     LegendNANA
19:00 15.8 12.8 82 31 10   101.28     LegendNANA
20:00 15.8 12.6 81 32 8   101.29     LegendNANA
21:00 16.0 13.0 82 31 6   101.30     LegendNANA
22:00 15.8 12.8 83 31 4   101.31     LegendNANA
23:00 15.3 12.4 83 25 3   101.34     LegendNANA

Notes on Data Quality.

Legend

  • E = Estimated
  • M = Missing
  • NA = Not Available
  • ‡ = Partner data that is not subject to review by the National Climate Archives
Date modified: